Location: Grossmotten
(48.5500°N, 15.3833°E)
Time: 02:49:19
(UTC+00:00)

SKYMED 2 - Pass Details

Date: 15 November 2019
Orbit: 621 x 623 km, 97.9° (Epoch: 12 December)

Event Time Altitude Azimuth Distance (km) Brightness Sun altitude
Rises 03:47:16 0° 156° (SSE) 2,893 7.3 -22.8°
Reaches altitude 10° 03:49:28 10° 154° (SSE) 1,991 6.5 -22.4°
Maximum altitude 03:53:45 65° 73° (ENE) 690 3.9 -21.7°
Drops below altitude 10° 03:58:04 10° 352° (N) 2,006 6.0 -21.0°
Enters shadow 03:58:54 - 351° (N) 2,346 6.4 -20.9°
